BEIJING 1 1 28890U 05043A 26164.86895003 .00000370 00000+0 80881-4 0 9995 2 28890 98.2901 298.0633 0013450 295.1056 64.8750 14.63530932100164 HUANJING 1A (HJ-1A) 1 33320U 08041A 26164.86236272 .00001553 00000+0 19218-3 0 9996 2 33320 97.6675 150.8289 0019726 145.0550 215.1964 14.83980991957912 HUANJING 1B (HJ-1B) 1 33321U 08041B 26164.89738657 .00000252 00000+0 36744-4 0 9993 2 33321 97.6513 154.0442 0035720 191.8582 168.1795 14.83310150957921 YAOGAN-4 1 33446U 08061A 26164.79394572 .00000945 00000+0 12215-3 0 9991 2 33446 97.9308 98.3293 0015753 82.4273 277.8730 14.83194294945163 DEIMOS-1 1 35681U 09041A 26164.79501895 .00000393 00000+0 65090-4 0 9998 2 35681 97.7393 322.1700 0001414 133.8642 226.2685 14.75233682906383 UK-DMC 2 1 35683U 09041C 26164.83628468 .00001083 00000+0 16442-3 0 9994 2 35683 97.8827 299.8848 0001230 76.0852 284.0495 14.76023517906070 DMC3-FM1 1 40715U 15032A 26164.90530691 .00000703 00000+0 86851-4 0 9991 2 40715 97.6472 30.2096 0007067 68.1177 292.0790 14.85734644589427 DMC3-FM2 1 40716U 15032B 26164.86002287 .00001107 00000+0 13335-3 0 9997 2 40716 97.6529 31.7376 0007681 72.9032 287.3025 14.85742367589411 DMC3-FM3 1 40717U 15032C 26164.88332436 .00000623 00000+0 77650-4 0 9995 2 40717 97.6581 33.5113 0006905 72.5318 287.6651 14.85731417589423